RH
96 56 46 46 43 26 15 16 27 64 41 52 87 97 98 98 98 94 98 92 99 46 37 37 33 38 48 69 77 80 79 91 87 65 60 74 75 84 86 76 63 52 47 53
98 56 47 47 43 23 16 18 27 57 33 56 97 98 100 98 98 98 98 96 94 42 28 31 29 36 51 67 78 71 77 87 85 78 77 69 97 89 88 80 66 64 72 54
95 74 49 46 39 21 16 19 28 56 30 66 95 84 99 98 96 97 98 98 97 40 19 31 26 33 38 53 81 88 87 80 78 66 58 82 74 64 80 81 78 66 54 65
98 86 50 45 35 19 17 20 34 59 28 81 100 98 99 98 98 99 99 100 100 59 19 24 23 26 34 51 69 80 83 90 85 74 75 74 71 77 87 69 81 76 82 73
96 70 50 48 31 19 17 21 34 60 27 73 100 92 98 97 98 100 96 66 98 38 30 41 22 24 31 54 47 66 86 88 87 86 79 73 66 67 88 71 66 48 50 57
97 100 96 51 32 20 18 21 36 62 22 74 100 82 98 98 99 91 83 65 42 52 75 57 84 94 100 86 91 83 80 87 81 89 87 78 67 61 64 73 69 63 55 80
90 99 64 41 29 20 19 22 36 65 18 75 100 86 98 98 95 94 79 55 58 52 66 72 91 86 67 68 76 98 97 96 87 86 79 63 64 63 58 59 58 64 69 78
96 77 50 38 26 19 19 24 36 67 22 70 100 92 99 97 98 97 91 82 81 73 64 78 90 100 100 98 98 99 93 88 84 76 69 64 62 64 63 70 76 59 50 28
98 66 49 38 26 20 21 25 35 70 26 71 99 97 99 98 97 96 96 98 98 91 95 100 100 87 94 95 92 97 98 98 87 85 81 82 96 84 83 61 37 25 27 27
98 91 60 39 26 21 23 28 35 74 28 73 95 92 94 95 97 96 99 97 97 98 98 96 97 98 96 95 88 77 80 83 83 99 98 80 91 75 65 60 74 79 78 79
94 98 62 36 25 22 25 30 39 76 27 73 97 97 95 96 98 97 97 98 98 95 97 99 100 97 90 97 96 92 91 98 99 99 89 91 91 96 92 83 80 88 88 74
100 96 54 31 23 25 26 30 43 78 30 55 99 95 93 100 98 98 100 97 98 98 97 90 97 95 97 99 96 97 90 98 100 86 81 91 93 74 79 83 61 50 43 47
94 75 43 29 23 28 27 36 49 84 38 33 90 98 96 100 97 97 98 96 96 98 98 99 97 95 99 100 97 98 93 93 77 82 74 62 62 71 84 93 93 97 88 82
100 99 60 30 24 31 28 35 53 92 70 20 77 98 93 98 98 97 92 64 69 80 86 95 91 83 80 85 82 78 72 65 64 66 72 72 68 65 66 70 74 76 75 66
100 99 67 36 25 33 30 35 53 92 99 27 45 96 96 96 100 95 67 51 42 39 37 39 40 44 64 71 68 63 58 52 44 39 33 26 19 16 17 22 31 47 62 71
100 99 98 69 30 35 31 36 38 73 100 73 25 60 99 97 98 97 96 94 84 58 49 47 51 48 45 39 40 47 49 50 48 37 24 19 19 21 23 25 38 56 76 77
100 100 100 98 54 34 36 37 38 59 86 100 58 31 55 95 98 95 92 95 96 90 64 53 52 50 52 46 47 55 56 55 44 25 26 28 29 32 41 50 65 72 72 69
100 100 100 100 99 54 40 57 49 51 64 76 88 61 34 42 67 96 100 95 89 84 66 58 57 52 41 36 53 52 40 33 30 31 33 40 52 70 75 76 74 68 60 49
99 100 100 100 99 88 54 64 59 45 52 49 47 83 98 52 40 42 64 93 97 92 86 81 76 64 49 56 54 39 34 33 34 37 49 87 88 62 50 51 54 49 40 44
99 99 97 92 93 97 68 61 56 45 44 48 43 54 85 97 81 48 40 36 44 66 73 72 56 49 45 40 34 31 31 36 60 68 66 67 75 84 92 92 68 76 94 71
89 92 92 97 100 98 83 79 72 62 74 66 47 44 48 60 87 99 83 56 44 34 36 40 34 33 37 36 33 36 52 62 70 73 92 94 95 96 95 92 84 60 53 52
95 90 99 100 100 97 90 82 82 75 68 65 55 51 48 46 49 57 76 89 92 82 63 64 51 54 62 68 71 79 79 83 87 78 77 77 70 61 57 55 53 52 54 68
100 100 100 100 97 98 85 72 67 60 61 69 66 61 59 56 51 50 52 54 56 63 64 62 62 60 69 76 69 56 42 38 40 46 52 55 56 56 54 52 51 59 83 84
100 99 100 100 96 83 65 79 83 80 85 100 98 93 80 71 63 58 52 48 45 43 40 42 42 42 40 35 37 44 53 55 56 55 54 54 53 52 53 67 88 82 68 61
100 99 99 91 72 72 78 82 95 100 100 100 96 92 95 95 86 70 58 54 50 46 45 47 48 49 47 46 48 51 55 58 57 56 55 57 64 88 91 80 70 62 57 55
100 100 90 85 85 86 98 98 100 100 100 97 88 94 97 96 94 86 84 76 66 64 64 71 72 73 71 70 75 79 78 77 79 86 97 100 95 83 73 66 62 61 60 59
100 91 76 83 89 90 96 99 100 100 95 99 98 99 100 92 92 89 91 99 100 100 93 88 85 85 85 84 86 91 95 97 99 100 95 86 82 74 69 67 66 65 64 62
Wind_Speed
45 41 36 34 31 29 25 25 22 22 21 21 17 13 18 21 10 7 6 4 9 7 25 32 42 45 46 49 48 48 48 44 48 47 44 38 41 36 36 33 33 32 30 25
44 38 35 34 30 28 24 22 20 20 18 17 11 9 17 17 10 8 6 8 2 9 25 31 40 45 46 49 46 43 44 45 45 44 43 48 44 44 30 36 33 30 28 26
43 39 35 33 30 28 23 20 18 19 14 16 10 9 14 14 8 7 2 6 4 5 28 30 38 47 47 46 45 41 44 42 40 38 43 37 26 28 28 30 31 29 28 26
44 38 35 32 29 27 22 18 17 17 14 12 5 7 13 8 5 3 4 6 12 8 25 30 37 43 43 46 47 46 39 40 37 37 38 40 37 34 33 31 28 32 25 30
47 40 34 32 29 28 22 17 17 16 14 15 8 2 5 1 5 3 6 7 15 21 21 14 24 35 36 34 41 41 34 33 36 35 35 38 40 39 38 32 34 32 33 31
55 46 42 35 30 27 22 17 17 15 14 15 11 7 4 4 5 5 4 11 21 25 22 27 32 26 20 22 18 17 29 31 32 34 34 32 37 37 37 34 32 28 32 20
52 45 39 35 30 27 22 19 17 13 14 17 15 8 4 8 7 9 12 20 24 27 29 35 33 27 25 25 24 23 24 26 30 31 34 36 30 30 35 33 27 26 24 25
48 44 38 33 31 27 22 20 18 14 16 18 16 11 9 13 13 12 18 19 21 25 29 30 24 24 21 25 27 26 25 24 23 25 24 21 24 25 25 27 25 26 25 24
47 42 37 33 32 27 23 20 19 15 18 20 20 15 13 12 17 20 20 20 21 21 21 28 32 31 30 30 24 27 27 23 21 18 16 14 20 23 25 24 20 21 22 24
48 43 37 34 32 28 25 22 20 16 21 22 21 19 16 15 17 21 24 21 21 22 23 26 28 30 27 23 23 31 27 26 22 19 16 16 23 24 25 19 14 18 21 22
53 43 38 35 33 29 26 22 21 18 20 24 22 20 19 18 19 22 26 23 21 20 19 25 25 25 25 20 25 27 24 29 25 23 25 21 19 21 17 20 22 22 23 23
53 46 40 36 34 30 27 24 22 19 20 27 24 27 22 24 28 26 24 26 24 21 24 19 15 24 23 21 19 20 24 22 20 20 16 13 13 22 22 18 20 22 23 24
49 44 41 37 35 31 29 26 23 21 21 29 26 25 24 24 37 33 28 24 25 25 24 21 22 18 19 19 18 16 17 14 11 11 9 12 13 16 18 19 20 21 23 23
52 50 42 38 35 32 29 27 25 22 22 29 28 27 27 22 35 32 27 25 24 23 22 23 22 22 22 19 18 18 16 14 12 12 12 13 15 17 20 22 23 24 24 26
49 47 43 39 36 33 32 30 28 24 24 27 31 28 31 27 26 37 31 27 26 26 24 23 22 22 21 20 17 15 14 13 13 13 14 16 17 18 22 26 29 30 31 31
43 47 41 39 37 35 34 32 31 26 24 25 31 31 31 33 30 27 33 32 26 23 24 25 24 24 23 21 19 16 15 16 17 17 18 19 21 25 27 29 30 31 31 32
46 42 41 44 40 37 36 33 28 29 25 25 29 33 33 32 33 34 32 33 34 31 28 26 25 27 27 26 22 20 20 21 22 22 23 26 28 30 30 30 30 30 31 31
43 44 41 42 42 41 37 35 34 33 31 28 27 27 33 34 32 33 37 38 38 38 38 33 29 30 31 30 23 22 25 26 27 30 31 31 30 29 28 29 30 30 31 32
46 47 44 44 47 44 39 39 36 36 34 30 26 22 25 33 33 35 35 34 39 38 39 38 37 35 36 30 28 28 30 30 32 33 33 31 29 29 29 30 31 31 32 33
43 43 44 46 48 48 41 41 39 38 35 31 28 27 25 26 31 35 37 39 39 40 39 40 39 34 33 33 32 33 35 35 32 32 31 31 33 35 35 33 33 34 33 32
41 38 40 43 45 43 42 44 43 40 37 33 30 28 27 28 27 29 34 34 37 41 40 41 41 36 35 36 35 36 34 33 33 35 35 34 33 33 32 30 29 31 33 35
42 37 35 44 48 49 50 52 48 44 37 35 32 30 29 28 28 28 28 29 31 33 34 35 33 31 33 32 32 33 33 33 34 32 32 32 32 32 31 31 32 34 36 39
45 46 47 42 43 43 39 39 38 35 34 36 32 31 29 30 31 31 31 32 32 29 29 27 24 27 29 30 29 31 31 32 32 32 32 32 32 32 33 33 34 36 37 35
49 49 50 45 43 39 34 34 37 36 38 34 34 34 32 33 34 35 34 34 33 34 31 29 30 30 31 32 32 32 31 30 30 30 31 32 32 32 33 34 33 32 33 35
51 44 44 36 37 36 31 29 30 35 34 35 37 36 34 35 37 37 35 34 35 31 26 26 27 27 27 28 29 30 31 31 31 32 33 33 33 32 30 30 31 32 35 37
49 46 43 39 37 33 27 25 28 30 33 35 32 32 33 34 34 34 36 35 31 27 26 26 27 26 26 27 29 31 32 33 33 32 31 29 28 29 29 31 32 35 38 41
56 50 47 42 39 36 33 30 28 29 31 32 30 30 31 31 32 29 27 25 28 32 32 33 34 34 32 30 30 30 30 29 28 28 28 29 30 30 32 35 38 40 43 46
Wind_Direction
216 224 231 236 245 253 260 273 282 290 286 279 296 315 324 328 303 304 272 234 275 170 188 183 181 178 182 188 187 186 190 190 195 206 206 209 211 209 211 213 212 213 216 220
215 221 225 232 240 248 255 267 279 285 274 277 285 307 340 339 326 281 260 196 12 190 184 184 184 181 185 191 191 191 195 200 201 205 204 208 201 202 213 209 210 216 228 228
214 215 222 228 235 242 250 260 274 280 256 271 286 333 345 337 317 277 339 227 274 215 177 182 186 185 188 192 196 200 198 199 205 209 210 205 218 225 225 226 224 227 226 236
216 212 218 223 229 237 244 253 264 273 245 259 266 302 331 326 281 168 252 207 247 206 183 183 183 187 189 195 200 200 203 204 206 211 214 216 219 223 221 224 232 232 233 237
216 203 215 219 223 233 239 244 256 263 239 250 219 306 332 251 233 229 348 205 190 152 154 175 186 186 192 205 209 209 204 204 211 218 220 221 223 231 230 237 232 236 237 241
218 219 214 219 221 226 232 235 246 258 232 237 215 234 301 173 209 161 89 141 150 142 153 150 148 159 178 191 194 209 222 222 225 226 228 223 221 225 233 236 242 250 248 242
216 207 207 211 213 217 222 228 237 244 229 224 210 215 240 160 154 158 128 129 145 160 162 159 166 179 183 191 194 194 208 212 218 221 226 227 226 230 233 240 238 244 243 243
203 199 201 205 208 212 214 222 228 233 223 217 203 207 203 181 171 158 163 154 151 147 156 162 173 180 187 191 193 200 204 204 209 215 224 228 224 224 227 233 233 238 239 244
198 200 198 199 205 208 211 215 223 223 219 211 207 214 204 209 184 172 155 164 182 178 179 180 179 190 190 186 201 200 193 193 198 198 220 217 213 222 225 232 232 239 242 246
199 199 199 199 203 205 208 212 220 220 213 208 210 215 202 207 200 182 187 181 178 181 189 190 189 187 192 203 204 190 194 195 203 216 232 235 215 220 224 228 232 242 249 253
203 194 197 199 201 203 206 209 218 218 211 210 217 207 209 205 204 181 177 180 183 184 179 188 188 194 198 202 202 205 209 208 221 209 226 236 226 224 231 241 240 252 256 259
210 195 195 196 199 199 205 207 215 217 209 208 219 206 207 209 189 165 172 183 187 188 183 191 208 193 194 204 201 208 213 214 218 227 219 228 227 218 246 252 257 260 262 263
194 190 191 194 198 197 204 205 212 215 211 210 218 215 203 201 190 184 178 177 174 175 176 180 183 178 178 190 184 191 190 195 207 219 223 241 240 247 258 261 265 268 270 269
202 195 191 193 196 197 202 205 212 215 217 211 214 222 205 202 196 173 179 182 184 184 178 175 174 180 181 180 178 177 186 201 222 233 235 247 258 263 266 267 269 270 271 269
196 188 189 190 196 198 202 205 211 213 218 214 212 220 210 204 196 183 171 181 180 182 187 183 181 184 188 191 198 205 216 221 229 236 244 253 259 264 266 266 266 266 268 270
195 199 193 190 196 199 204 206 210 213 216 216 218 218 219 214 204 197 194 186 190 198 193 192 192 191 196 197 201 215 231 243 248 252 261 266 271 273 272 268 267 268 269 269
201 205 203 197 198 202 206 207 211 218 216 216 219 222 224 223 223 211 205 206 205 206 212 212 215 214 212 213 222 243 256 259 261 265 267 271 274 271 270 267 267 269 272 274
201 205 213 209 204 202 205 206 211 216 219 218 220 225 228 231 234 230 226 219 220 220 223 220 232 233 230 227 241 252 255 257 261 265 269 271 268 267 268 268 272 274 275 276
208 209 215 218 209 203 207 210 213 216 219 220 223 219 224 228 231 236 240 236 231 230 224 232 238 238 241 245 247 249 253 256 260 265 268 268 270 271 272 272 274 275 275 274
211 212 215 214 211 205 207 212 213 215 218 220 223 221 224 229 229 232 235 238 241 239 238 241 241 242 250 254 252 251 255 258 259 260 263 264 264 267 270 271 269 270 275 278
216 214 212 204 202 201 210 214 214 215 217 217 222 226 228 233 234 235 237 240 244 246 246 249 248 248 252 253 256 257 258 258 260 263 267 269 270 272 275 275 274 273 277 284
214 219 218 207 205 208 212 215 215 218 218 218 222 225 228 233 238 241 245 244 242 246 249 252 253 252 252 253 254 256 260 262 264 266 266 266 266 268 269 270 273 277 282 287
212 216 218 218 226 228 233 227 223 232 231 222 222 225 227 232 236 237 238 242 247 250 251 253 252 251 254 258 261 259 258 257 257 257 257 259 261 263 267 272 277 283 286 287
217 220 220 222 223 225 226 229 233 232 228 224 223 221 224 228 234 237 239 243 247 249 251 253 253 250 250 251 252 252 253 254 256 258 260 262 264 268 273 277 280 282 283 285
212 213 216 214 219 219 223 224 222 228 227 227 229 231 234 234 237 240 243 246 248 251 254 253 252 250 248 249 252 255 257 257 257 257 259 263 267 270 271 274 277 281 287 291
207 212 216 215 217 214 209 205 204 212 220 226 229 233 237 241 244 247 250 252 255 256 252 247 246 250 254 254 252 252 253 254 257 260 260 260 262 265 270 277 281 285 288 292
207 211 215 213 214 212 205 205 207 212 216 221 227 231 235 238 242 246 252 255 252 251 251 252 253 255 255 252 250 250 251 252 253 253 255 259 264 270 274 279 284 289 293 296